Location: Winthrop
(48.4780°N, 120.1850°W)
Time: 03:04:40
(UTC-07:00)

Transit 2A - Pass Details

Date: 19 June 2024
Orbit: 591 x 960 km, 66.7° (Epoch: 23 July)

Event Time Altitude Azimuth Distance (km) Brightness Sun altitude
Rises 02:00:00 0° 321° (NW) 3,515 10.0 -16.9°
Reaches altitude 10° 02:02:31 10° 317° (NW) 2,611 9.2 -16.8°
Maximum altitude 02:08:26 52° 243° (WSW) 1,172 6.7 -16.6°
Enters shadow 02:12:12 23° 178° (S) 1,905 7.5 -16.4°
